BSAT-4B (46112 NORAD) Tracking and Keplerian Element Data

This shows tracking and keplerian element data for the satellite.

Feedback or suggestion? Click here.




ElementValue
Catalog46112
NameBSAT-4B
Epoch Orbit110
Epoch Day336.89821046
Epoch Year2020
RAAN122.6915
Inclination0.0924
Eccentricity0.0002184
Argument of Perigee63.2141
Mean Anonmoly318.5136
Mean Motion1.00272941
Decay Rate-3.3E-06
L11 46112U 20056A 20336.89821046 -.00000330 00000-0 00000-0 0 9996
L22 46112 0.0924 122.6915 0002184 63.2141 318.5136 1.00272941 1104

Live tracking and technical data element details for BSAT-4B (NORAD 46112). BSAT-4B can be tracked NOW for your location showing map with azimuth and elevation plus other details from your city location.

Track the satellite on the map from your city or location and see movement details for azimuth, elevation, latitude, longitude, range, height, and movement on the map or in text.







IsCatalogInMostPopularTable: catalog: 46112, numindb: 23
Update: records affected: 1



GetName: 46112 BSAT-4B

Hit Count: updated at: Thu, 03 Dec 2020 02:48:30 GMT